(68) Leto
ephemeris date magn radius delta ra dec elong phase
Today18 Jul 202511.92.334 AU2.521 AU03h03m+14°36'67.7°23.8°
Opposition20 Nov 202510.02.524 AU1.537 AU03h40m+22°51'176.8°1.3°
(68) Leto - 2025-07-18
astro.vanbuitenen.nl


 
-1 year
-1 month
-1 day
Now
+1 day
+1 month
+1 year

The interactive orbit chart above shows the body's path through the solar system and its position at the given date. Green and blue lines are shown perpendicular to the ecliptic plane: Green if the path is above the ecliptic plane, blue if it is below. (Left-click and drag to rotate the view; Right-click and drag to move the view; Use scroll wheel to zoom in our out.)

The orbital elements of Leto are:

            e (Eccentricity)                : 0.1843252
            a (Semimajor axis)              : 2.7824271
            i (Inclination)                 : 7.96099
            Ω (Longitude of ascending node) : 44.04880
            ω (Argument of perihelion)      : 304.84262
            M (Mean anomaly)                : 8.23054
            Epoch                           : 2025 May 05

            L (Longitude of perihelion)     : -10.84797
            B (Latitude of perihelion)      : -6.52688
            P (Orbital period in years)     : 4.64            
        

The light curve chart below shows the estimated development of the minor planet's magnitude.


The all-sky chart below shows the path of the minor planet over the same period as the light curve. The current position is marked yellow.





The following chart shows the path of the minor planet in the next few days. The field of view is optimized for (~10x50) binoculars and finderscopes. A more printer-friendly version of the same chart can be found below.




Ephemerides:
Date       Time       RA (2000)    DEC (2000)    delta   radius  elong  phase   PA    magn
2025-07-18 00:00 UT   03 03 23.1   +14 36 17     2.521    2.334   67.7   23.8   253   11.9 
2025-07-18 22:56 UT   03 04 48.5   +14 43 41     2.512    2.335   68.3   23.8   253   11.9 
2025-07-19 00:00 UT   03 04 52.5   +14 44 02     2.511    2.335   68.3   23.9   253   11.9 
2025-07-20 00:00 UT   03 06 21.3   +14 51 42     2.501    2.336   68.9   23.9   253   11.9 
2025-07-21 00:00 UT   03 07 49.6   +14 59 19     2.491    2.338   69.5   24.0   253   11.9 
2025-07-22 00:00 UT   03 09 17.3   +15 06 50     2.481    2.339   70.1   24.1   253   11.8 
2025-07-23 00:00 UT   03 10 44.5   +15 14 18     2.471    2.340   70.6   24.2   254   11.8 
2025-07-24 00:00 UT   03 12 11.1   +15 21 41     2.461    2.341   71.2   24.3   254   11.8 
2025-07-25 00:00 UT   03 13 37.2   +15 28 59     2.451    2.342   71.8   24.3   254   11.8 
2025-07-26 00:00 UT   03 15 02.6   +15 36 14     2.441    2.343   72.4   24.4   254   11.8 
2025-07-27 00:00 UT   03 16 27.4   +15 43 24     2.431    2.344   73.0   24.5   254   11.8 
2025-07-28 00:00 UT   03 17 51.6   +15 50 29     2.421    2.346   73.6   24.5   254   11.8 
2025-07-29 00:00 UT   03 19 15.2   +15 57 31     2.410    2.347   74.2   24.6   254   11.8 
2025-07-30 00:00 UT   03 20 38.1   +16 04 28     2.400    2.348   74.8   24.7   255   11.8 
2025-07-31 00:00 UT   03 22 00.3   +16 11 21     2.390    2.349   75.4   24.7   255   11.8 
2025-08-01 00:00 UT   03 23 21.9   +16 18 10     2.379    2.350   76.0   24.8   255   11.8 
2025-08-02 00:00 UT   03 24 42.7   +16 24 54     2.369    2.352   76.6   24.8   255   11.8 
2025-08-03 00:00 UT   03 26 02.9   +16 31 34     2.358    2.353   77.3   24.9   255   11.8 
2025-08-04 00:00 UT   03 27 22.4   +16 38 11     2.348    2.354   77.9   24.9   255   11.8 
2025-08-05 00:00 UT   03 28 41.1   +16 44 43     2.338    2.355   78.5   25.0   255   11.8 
2025-08-06 00:00 UT   03 29 59.1   +16 51 11     2.327    2.357   79.1   25.0   256   11.7 
2025-08-07 00:00 UT   03 31 16.3   +16 57 35     2.316    2.358   79.8   25.0   256   11.7 
2025-08-08 00:00 UT   03 32 32.7   +17 03 55     2.306    2.359   80.4   25.1   256   11.7 
2025-08-09 00:00 UT   03 33 48.4   +17 10 11     2.295    2.360   81.0   25.1   256   11.7 
2025-08-10 00:00 UT   03 35 03.2   +17 16 23     2.285    2.362   81.7   25.1   256   11.7 
2025-08-11 00:00 UT   03 36 17.2   +17 22 32     2.274    2.363   82.3   25.2   256   11.7 


    Terminology:
            
    delta:  distance between minor planet and earth in AU
    radius: distance between minor planet and sun in AU
    magn:   magnitude (brightness) estimate    
    ra:     right ascension in hours (24h = 360deg)
    dec:    declination in degrees
    elong:  elongation in degrees (angle sun-earth-minor planet)    
    phase:  phase angle in degrees (angle sun-minor planet-earth)        
    AU:     Astronomical Unit (mean distance between earth and sun: 149597870.7 km
    

Orbital elements provided by the MPC (Minor Planet Center).
Calculations by a modified version of AAPlus, a C# implementation of the AA+ project by PJ Naughter from the algorithms presented in the book "Astronomical Algorithms" by Jean Meeus.
NGC2000 dso catalog and star labels from VizieR as provided by the Strasbourg astronomical Data Center.
Tycho2 catalog from the ESO archive.